Auburn-Lewiston, ME

1:29 PM EDT on May 21, 2018 (GMT -0400)
Auburn-Lewiston Municipal

Weather History for KLEW - February, 2013

Change the Weather History Date:

Friday, February 8, 2013

  Actual Average Record
Temperature  
Mean Temperature 9 °F -  
Max Temperature 12 °F 29 °F 46 °F (2009)
Min Temperature 6 °F 10 °F -9 °F (2007)
Degree Days  
Heating Degree Days 56    
Moisture  
Dew Point 3 °F    
Average Humidity 73    
Maximum Humidity 92    
Minimum Humidity 34    
Precipitation  
Precipitation 0.00 in - - ()
Sea Level Pressure  
Sea Level Pressure 30.30 in    
Wind  
Wind Speed 10 mph (NNE)    
Max Wind Speed 24 mph    
Max Gust Speed 34 mph    
Visibility 4 miles    
Events      
Averages and records for this station are not official NWS values.
T = Trace of Precipitation, MM = Missing Value Source: NWS Daily Summary

Daily Weather History Graph

Daily Weather History Graph

Search for Another Location

Airport or City:

Astronomy

Feb. 08, 2013 Rise Set
Actual Time 6:49 AM EST 5:01 PM EST
Civil Twilight 6:19 AM EST 5:31 PM EST
Nautical Twilight 5:45 AM EST 6:05 PM EST
Astronomical Twilight 5:11 AM EST 6:39 PM EST
Moon 5:17 AM EST (2/8) 3:29 PM EST (2/8)
Length of Visible Light 11h 11m
Length of Day
10h 11m
Waning Crescent, 3% of the Moon is Illuminated
Feb 8
Waning Crescent
Feb 10
New
Feb 17
First Quarter
Feb 25
Full
Mar 4
Last Quarter

Hourly Weather History & Observations

Time (EST) Temp. Windchill Dew Point Humidity Pressure Visibility Wind Dir Wind Speed Gust Speed Precip Events Conditions
12:15 AM 10.4 °F 2.2 °F -13.0 °F 34% 30.53 in 10.0 mi NE 4.6 mph - N/A   Overcast
12:35 AM 10.4 °F 4.0 °F -13.0 °F 34% 30.53 in 10.0 mi East 3.5 mph - N/A   Overcast
12:55 AM 10.4 °F 4.0 °F -11.2 °F 37% 30.53 in 10.0 mi NE 3.5 mph - N/A   Overcast
1:15 AM 10.4 °F 0.8 °F -11.2 °F 37% 30.53 in 10.0 mi NE 5.8 mph - N/A   Overcast
1:55 AM 10.4 °F 4.0 °F -11.2 °F 37% 30.52 in 10.0 mi ENE 3.5 mph - N/A   Overcast
2:15 AM 10.4 °F -0.4 °F -9.4 °F 41% 30.52 in 10.0 mi ENE 6.9 mph - N/A   Overcast
2:35 AM 10.4 °F -0.4 °F -7.6 °F 44% 30.52 in 10.0 mi NE 6.9 mph - N/A   Overcast
2:55 AM 10.4 °F 0.8 °F -5.8 °F 48% 30.51 in 10.0 mi NNE 5.8 mph - N/A   Overcast
3:15 AM 10.4 °F -1.5 °F -5.8 °F 48% 30.50 in 10.0 mi NNE 8.1 mph - N/A   Overcast
3:35 AM 10.4 °F -2.4 °F -5.8 °F 48% 30.49 in 10.0 mi NNE 9.2 mph - N/A   Overcast
3:55 AM 10.4 °F -2.4 °F -5.8 °F 48% 30.49 in 10.0 mi NNE 9.2 mph - N/A   Overcast
4:35 AM 8.6 °F -3.7 °F -4.0 °F 57% 30.48 in 10.0 mi NE 8.1 mph - N/A   Overcast
4:55 AM 8.6 °F -5.5 °F -4.0 °F 57% 30.48 in 10.0 mi NNE 10.4 mph - N/A   Overcast
5:15 AM 8.6 °F -5.5 °F -2.2 °F 62% 30.48 in 10.0 mi NNE 10.4 mph - N/A   Overcast
5:35 AM 8.6 °F -4.7 °F -2.2 °F 62% 30.47 in 10.0 mi NE 9.2 mph - N/A   Overcast
5:55 AM 8.6 °F -4.7 °F -4.0 °F 57% 30.47 in 5.0 mi NNE 9.2 mph - N/A   Overcast
6:15 AM 8.6 °F -3.7 °F -2.2 °F 62% 30.48 in 5.0 mi NNE 8.1 mph - N/A   Overcast
6:35 AM 8.6 °F -7.7 °F -0.4 °F 67% 30.46 in 8.0 mi North 13.8 mph - N/A   Overcast
7:15 AM 8.6 °F -4.7 °F -0.4 °F 67% 30.46 in 2.5 mi NNE 9.2 mph - N/A   Overcast
7:36 AM 6.8 °F -6.9 °F -0.4 °F 72% 30.46 in 2.0 mi NNE 9.2 mph - N/A   Overcast
7:55 AM 6.8 °F -8.6 °F 1.4 °F 79% 30.46 in 1.5 mi NNE 11.5 mph - N/A   Overcast
8:15 AM 6.8 °F -5.9 °F 1.4 °F 79% 30.46 in 1.8 mi North 8.1 mph - N/A   Overcast
8:55 AM 6.8 °F -7.8 °F 1.4 °F 79% 30.46 in 1.5 mi NNE 10.4 mph - N/A   Overcast
9:15 AM 6.8 °F -6.9 °F 1.4 °F 79% 30.45 in 1.8 mi North 9.2 mph - N/A   Overcast
9:35 AM 6.8 °F -7.8 °F 3.2 °F 85% 30.44 in 1.0 mi NNE 10.4 mph - N/A   Overcast
9:55 AM 6.8 °F -8.6 °F 1.4 °F 79% 30.44 in 1.5 mi NNE 11.5 mph - N/A   Overcast
10:15 AM 8.6 °F -6.3 °F 3.2 °F 79% 30.42 in 1.8 mi NNE 11.5 mph - N/A   Overcast
10:35 AM 8.6 °F -6.3 °F 3.2 °F 79% 30.42 in 1.8 mi NNE 11.5 mph 16.1 mph N/A   Overcast
10:55 AM 8.6 °F -6.3 °F 3.2 °F 79% 30.41 in 1.8 mi NNE 11.5 mph - N/A   Overcast
11:15 AM 8.6 °F -5.5 °F 3.2 °F 79% 30.41 in 3.0 mi North 10.4 mph - N/A   Overcast
11:55 AM 8.6 °F -4.7 °F 3.2 °F 79% 30.38 in 1.5 mi North 9.2 mph - N/A   Overcast
12:15 PM 8.6 °F -7.0 °F 3.2 °F 79% 30.37 in 1.2 mi NNE 12.7 mph - N/A   Overcast
12:35 PM 10.4 °F -3.3 °F 5.0 °F 79% 30.36 in 1.5 mi NNE 10.4 mph - N/A   Overcast
1:15 PM 10.4 °F -5.4 °F 6.8 °F 85% 30.33 in 1.8 mi NNE 13.8 mph 17.3 mph N/A   Overcast
1:35 PM 10.4 °F -4.1 °F 6.8 °F 85% 30.31 in 2.0 mi NNE 11.5 mph 19.6 mph N/A   Overcast
1:55 PM 10.4 °F -5.4 °F 6.8 °F 85% 30.30 in 3.0 mi NNE 13.8 mph - N/A   Overcast
2:15 PM 10.4 °F -5.4 °F 6.8 °F 85% 30.29 in 3.0 mi NNE 13.8 mph - N/A   Overcast
2:35 PM 10.4 °F -4.8 °F 6.8 °F 85% 30.28 in 2.5 mi NNE 12.7 mph 19.6 mph N/A   Overcast
2:55 PM 12.2 °F -3.1 °F 6.8 °F 79% 30.26 in 2.0 mi NNE 13.8 mph - N/A   Overcast
3:15 PM 12.2 °F -3.1 °F 6.8 °F 79% 30.25 in 3.0 mi NNE 13.8 mph 20.7 mph N/A   Overcast
3:35 PM 12.2 °F -3.7 °F 8.6 °F 85% 30.24 in 1.8 mi NNE 15.0 mph - N/A   Overcast
3:55 PM 12.2 °F -1.0 °F 8.6 °F 85% 30.23 in 1.2 mi NNE 10.4 mph - N/A   Overcast
4:15 PM 12.2 °F -3.1 °F 8.6 °F 85% 30.23 in 1.5 mi NNE 13.8 mph 20.7 mph N/A   Overcast
4:36 PM 12.2 °F -3.1 °F 8.6 °F 85% 30.21 in 1.2 mi NNE 13.8 mph 18.4 mph N/A   Overcast
4:55 PM 12.2 °F -2.5 °F 8.6 °F 85% 30.19 in 1.2 mi NNE 12.7 mph 19.6 mph N/A   Overcast
5:15 PM 12.2 °F -3.7 °F 8.6 °F 85% 30.19 in 1.2 mi NNE 15.0 mph 20.7 mph N/A   Overcast
5:35 PM 12.2 °F -4.8 °F 8.6 °F 85% 30.18 in 2.0 mi NNE 17.3 mph - N/A   Overcast
5:55 PM 12.2 °F -4.8 °F 8.6 °F 85% 30.17 in 2.0 mi NNE 17.3 mph 20.7 mph N/A   Overcast
6:15 PM 12.2 °F -5.8 °F 8.6 °F 85% 30.16 in 3.0 mi NNE 19.6 mph 24.2 mph N/A   Overcast
6:35 PM 12.2 °F -5.3 °F 8.6 °F 85% 30.14 in 2.5 mi NNE 18.4 mph 26.5 mph N/A   Overcast
6:55 PM 12.2 °F -4.3 °F 8.6 °F 85% 30.13 in 1.8 mi NNE 16.1 mph 23.0 mph N/A   Overcast
7:15 PM 12.2 °F -4.8 °F 8.6 °F 85% 30.12 in 2.5 mi NNE 17.3 mph 23.0 mph N/A   Overcast
7:35 PM 12.2 °F -4.3 °F 8.6 °F 85% 30.12 in 3.0 mi NNE 16.1 mph - N/A   Overcast
7:55 PM 12.2 °F -3.1 °F 6.8 °F 79% 30.10 in 2.0 mi NNE 13.8 mph 25.3 mph N/A   Overcast
8:15 PM 12.2 °F -4.3 °F 8.6 °F 85% 30.08 in 1.8 mi NNE 16.1 mph - N/A   Overcast
8:35 PM 12.2 °F -4.3 °F 8.6 °F 85% 30.06 in 1.8 mi NNE 16.1 mph 21.9 mph N/A   Overcast
8:55 PM 12.2 °F -4.3 °F 8.6 °F 85% 30.05 in 2.0 mi NNE 16.1 mph 25.3 mph N/A   Overcast
9:16 PM 12.2 °F -4.3 °F 6.8 °F 79% 30.04 in 1.5 mi NNE 16.1 mph 25.3 mph N/A   Overcast
9:35 PM 12.2 °F -5.3 °F 6.8 °F 79% 30.02 in 1.8 mi NNE 18.4 mph 25.3 mph N/A   Overcast
9:55 PM 10.4 °F -7.7 °F 6.8 °F 85% 30.00 in 1.5 mi NNE 18.4 mph 26.5 mph N/A   Overcast
10:15 PM 10.4 °F -9.1 °F 6.8 °F 85% 29.98 in 1.2 mi NNE 21.9 mph 28.8 mph N/A   Overcast
10:35 PM 10.4 °F -9.9 °F 6.8 °F 85% 29.95 in 1.0 mi NNE 24.2 mph 28.8 mph N/A   Overcast
10:55 PM 10.4 °F -9.9 °F 8.6 °F 92% 29.94 in 1.0 mi NNE 24.2 mph 29.9 mph N/A   Overcast
11:15 PM 10.4 °F -9.1 °F 8.6 °F 92% 29.93 in 1.0 mi NNE 21.9 mph 34.5 mph N/A   Overcast
11:35 PM 10.4 °F -9.5 °F 8.6 °F 92% 29.92 in 0.8 mi NNE 23.0 mph 27.6 mph N/A   Overcast
11:56 PM 10.4 °F -9.1 °F 6.8 °F 85% 29.89 in 0.5 mi NNE 21.9 mph 32.2 mph N/A   Overcast